Regional Weather Roundup
Issued by NWS

Home | Current Version | Previous Version | Text Only | Print | Product List | Glossary Off
Versions: 1 2 3 4 5 6 7 8 9 10 11 12 13 14 15 16 17 18 19 20 21 22 23 24 25 26 27 28 29 30 31 32 33 34 35 36 37 38 39 40 41 42 43 44 45 46 47 48 49 50

000
ASUS43 KMPX 271710
RWRMN
WEATHER ROUNDUP FOR MINNESOTA
NATIONAL WEATHER SERVICE TWIN CITIES/CHANHASSEN MN
1200 PM CDT MON APR 27 2015


NOTE: "FAIR" INDICATES FEW OR NO CLOUDS BELOW 12,000 FEET WITH NO
SIGNIFICANT WEATHER AND/OR OBSTRUCTIONS TO VISIBILITY. N/A MEANS
CURRENT SKY AND/OR WEATHER CONDITIONS ARE NOT AVAILABLE.

MNZ060>063-068>070-271800-
   Twin Cities Metro

CITY           SKY/WX    TMP DP  RH WIND       PRES   REMARKS
TWIN CITIES    SUNNY     61  29  29 VRB3      30.24F
ST PAUL        SUNNY     61  27  27 N8        30.25S
CRYSTAL        SUNNY     62  28  27 N10       30.23F
BLAINE         SUNNY     63  30  29 N3        30.24F
LAKEVILLE      SUNNY     59  28  31 N3        30.24F
EDEN PRAIRIE   SUNNY     62  30  29 NW12      30.23F
SOUTH ST PAUL  SUNNY     61  26  26 NE7       30.23F
LAKE ELMO      FAIR      61  30  31 NW10      30.24F
$$
MNZ001>005-007-008-013>017-022>024-027-028-271800-
   Northwest Minnesota

CITY           SKY/WX    TMP DP  RH WIND       PRES   REMARKS
BEMIDJI        MOSUNNY   64  28  25 N6        30.22S
HALLOCK        CLOUDY    59  41  51 N9        30.22F
ROSEAU         PTSUNNY   66  30  26 SW8       30.20F
WARROAD        MOSUNNY   66  34  30 W7        30.20F
THIEF RVR FALL PTSUNNY   66  27  22 SW8       30.22S
CROOKSTON      PTSUNNY   66  30  26 W8        30.22F
FOSSTON        MOSUNNY   68  25  19 W7        30.23S
DETROIT LAKES  SUNNY     63  23  22 NW6       30.25S
MOORHEAD       MOSUNNY   64  21  19 W5        30.23F
PARK RAPIDS    SUNNY     66  22  18 NW7       30.22F
MAHNOMEN       FAIR      65  26  22 NW7       30.23F
$$
MNZ006-009>011-018-025>026-271800-
   North Central Minnesota

CITY           SKY/WX    TMP DP  RH WIND       PRES   REMARKS
BAUDETTE       SUNNY     67  24  19 N6        30.20F
FLAG ISLAND    PTSUNNY   50  23  34 SE5       30.20S
INTL FALLS     SUNNY     61  23  23 VRB5      30.22S
WASKISH        MOSUNNY   63  25  23 CALM      30.22S
BIG FORK       SUNNY     64  18  16 NW6       30.22S
LONGVILLE      SUNNY     64  19  17 NW7       30.23F
GRAND RAPIDS   SUNNY     61  21  21 CALM      30.23S
CRANE LAKE     SUNNY     57  23  26 N5        30.24F
ORR            SUNNY     63  19  19 CALM      30.20S
COOK           SUNNY     59  27  29 CALM      30.22F
WALKER         FAIR      63  24  22 SE6       30.22F
$$
MNZ012-019>021-037-271800-
   Northeast Minnesota

CITY           SKY/WX    TMP DP  RH WIND       PRES   REMARKS
DULUTH         SUNNY     57  28  33 SE8       30.22S
ELY            SUNNY     55  25  30 CALM      30.22F
HIBBING        SUNNY     62  21  20 VRB7      30.21F
EVELETH        SUNNY     59  27  29 E5        30.23S
DULUTH HARBOR  SUNNY     48  30  49 N3        30.25S
TWO HARBORS    SUNNY     59  36  41 S8        30.21S
SILVER BAY     SUNNY     57  28  33 SE6       30.20S
GRAND MARAIS     N/A     43  33  68 SW8       30.21F
G MARAIS ARPRT SUNNY     57  25  28 NW6       30.20F
$$
MNZ029>031-032-039>041-046>048-054>057-064-271800-
   West Central Minnesota

CITY           SKY/WX    TMP DP  RH WIND       PRES   REMARKS
FERGUS FALLS   SUNNY     63  16  16 W5        30.25F
WHEATON        SUNNY     63  21  20 E3        30.26F
MORRIS         SUNNY     64  23  20 W7        30.24F
ALEXANDRIA     SUNNY     61  23  23 W7        30.26F
ELBOW LAKE     FAIR      62  22  22 NW5       30.25F
WADENA         SUNNY     63  27  25 W6        30.23F
GLENWOOD       SUNNY     63  27  25 SW6       30.26F
APPLETON       SUNNY     64  19  17 W7        30.24F
BENSON         SUNNY     64  14  14 CALM      30.25F
ORTONVILLE     SUNNY     63  21  20 SE5       30.24F
MADISON        SUNNY     63  18  17 SE5       30.24F
WILLMAR        FAIR      63  27  25 W9        30.27S
$$
MNZ033>034-036-042>043-049>051-058-059-271800-
   Central Minnesota

CITY           SKY/WX    TMP DP  RH WIND       PRES   REMARKS
ST CLOUD       SUNNY     62  25  24 NW7       30.24F
SAUK CENTRE    FAIR      61  26  26 W8G17     30.25F
PAYNESVILLE    SUNNY     58  26  28 W9        30.26S
AITKIN         SUNNY     66   7   9 N3        30.21F
PINE RIVER     SUNNY     63  30  29 N6        30.25F
BRAINERD       SUNNY     63  19  18 VRB6      30.23F
STAPLES        SUNNY     64  19  17 N7        30.24S
LONG PRAIRIE   FAIR      61  27  27 W10       30.25F
LITTLE FALLS   SUNNY     63  19  19 W10       30.24F
LITCHFIELD     SUNNY     63  25  23 W3        30.25F
BUFFALO        SUNNY     61  25  25 NW7       30.26S
MAPLE LAKE     SUNNY     63  30  29 NW5       30.26S
$$
MNZ037-044-045-052-053-271800-
   East Central Minnesota

CITY           SKY/WX    TMP DP  RH WIND       PRES   REMARKS
PRINCETON      SUNNY     63  25  23 W9        30.24F
MORA           SUNNY     61  27  27 N3        30.25S
CAMBRIDGE      SUNNY     63  37  39 W5        30.22F
RUSH CITY      SUNNY     60  27  28 W5        30.24F
MOOSE LAKE     SUNNY     63  30  29 CALM      30.21F
HINCKLEY       FAIR      61  27  27 NW7       30.23F
CLOQUET        SUNNY     61  19  20 CALM      30.22S
MCGREGOR       SUNNY     63  23  22 N8        30.23F
$$
MNZ071>073-080-081-089-090-097-098-271800-
   Southwest Minnesota

CITY           SKY/WX    TMP DP  RH WIND       PRES   REMARKS
MONTEVIDEO     SUNNY     66  23  19 CALM      30.26S
GRANITE FALLS  SUNNY     63  23  22 NE3       30.26F
CANBY          SUNNY     61  22  22 NE3       30.26S
MARSHALL       SUNNY     63  23  22 E7        30.24S
REDWOOD FALLS  SUNNY     63  23  21 VRB6      30.24F
OLIVIA         SUNNY     59  23  25 E3        30.24F
PIPESTONE      SUNNY     61  19  20 SE2       30.23F
WINDOM         SUNNY     61  21  21 VRB9      30.24F
WORTHINGTON    SUNNY     61  25  25 N9G16     30.23F
JACKSON        SUNNY     61  21  21 E13       30.24F
TRACY          SUNNY     63  25  23 NE6       30.24F
SLAYTON        SUNNY     61  20  20 CALM      30.25S
$$
MNZ065>067-074>077-082>085-091>093-271800-
   South Central Minnesota

CITY           SKY/WX    TMP DP  RH WIND       PRES   REMARKS
MANKATO        SUNNY     61  30  31 NE9G16    30.24F
NEW ULM        SUNNY     61  27  27 N3        30.24F
ST JAMES       SUNNY     63  21  20 N8G16     30.25S
FAIRMONT       SUNNY     63  27  25 N13G18    30.23F
GLENCOE        SUNNY     62  30  30 N9        30.24F
FARIBAULT      SUNNY     61  28  29 NE8       30.25S
OWATONNA       SUNNY     61  27  27 NE7       30.23F
WASECA         SUNNY     59  30  33 NE15      30.25S
ALBERT LEA     SUNNY     59  28  31 NE14      30.22F
$$
MNZ078>079-086>088-094>096-271800-
   Southeast Minnesota

CITY           SKY/WX    TMP DP  RH WIND       PRES   REMARKS
ROCHESTER      SUNNY     57  34  41 NW8       30.24F
RED WING       SUNNY     61  28  29 NW7       30.22F
STANTON        SUNNY     61  28  28 N9        30.23S
DODGE CENTER   SUNNY     57  34  41 NE7       30.23F
WINONA         SUNNY     59  32  36 W5        30.22S
AUSTIN         SUNNY     57  34  41 NE8       30.22S
PRESTON        SUNNY     55  32  41 N5G16     30.21F
$$
ABBREVIATIONS USED IN REMARKS
   TC - TEMPERATURES IN CELSIUS
  WCI - WIND CHILL INDEX
   HX - HEAT INDEX
  VSB - VISIBILITY
$$



USA.gov is the U.S. government's official web portal to all federal, state and local government web resources and services.